Location: North Runcton
(52.7000°N, 0.4333°E)
Time: 22:25:29
(UTC+00:00)

Cosmos 1766 Rocket - Pass Details

Date: 19 May 2025
Orbit: 599 x 626 km, 82.5° (Epoch: 11 June)

Event Time Altitude Azimuth Distance (km) Brightness Sun altitude
Rises 21:52:49 0° 351° (N) 2,911 8.5 -12.7°
Reaches altitude 10° 21:55:05 10° 355° (N) 1,996 7.3 -12.8°
Maximum altitude 21:59:28 61° 76° (ENE) 701 3.7 -13.1°
Enters shadow 22:02:15 21° 152° (SSE) 1,378 4.7 -13.3°
